This is the latest recevied weather packets stored in our database for station/object WX2NJ-13. If no packets are shown the sender has not sent any weather packets the latest 10 day(s).
| Time | Temp. | Humidity | Pressure | Rain* | Wind** | Luminosity | Snow |
|---|---|---|---|---|---|---|---|
| 1778075301 | 21.67° C | 62% | 1011.1 hPa | 0 mm | 1.34 m/s, 155° | - | - |
| 1778075002 | 21.67° C | 62% | 1011.2 hPa | 0 mm | 1.34 m/s, 166° | - | - |
| 1778074701 | 21.11° C | 62% | 1011.3 hPa | 0 mm | 1.34 m/s, 148° | - | - |
| 1778074402 | 21.11° C | 62% | 1011.4 hPa | 0 mm | 1.34 m/s, 197° | - | - |
| 1778074103 | 21.11° C | 64% | 1011.4 hPa | 0 mm | 0.89 m/s, 166° | - | - |
| 1778073802 | 20.56° C | 65% | 1011.6 hPa | 0 mm | 1.34 m/s, 160° | - | - |
| 1778073503 | 20.56° C | 65% | 1011.7 hPa | 0 mm | 2.68 m/s, 156° | - | - |
| 1778073204 | 20.56° C | 66% | 1011.6 hPa | 0 mm | 1.34 m/s, 153° | - | - |
| 1778072903 | 20° C | 67% | 1011.6 hPa | 0 mm | 2.24 m/s, 212° | - | - |
| 1778072604 | 20° C | 68% | 1011.5 hPa | 0 mm | 1.34 m/s, 167° | - | - |
| 1778072305 | 20° C | 69% | 1011.5 hPa | 0 mm | 1.34 m/s, 215° | - | - |
| 1778072004 | 19.44° C | 69% | 1011.6 hPa | 0 mm | 0.89 m/s, 153° | - | - |
| 1778071705 | 18.89° C | 70% | 1011.5 hPa | 0 mm | 2.68 m/s, 165° | - | - |
| 1778071406 | 18.89° C | 70% | 1011.5 hPa | 0 mm | 1.34 m/s, 186° | - | - |
| 1778071105 | 18.89° C | 70% | 1011.3 hPa | 0 mm | 1.34 m/s, 169° | - | - |
| 1778070806 | 18.89° C | 71% | 1011.5 hPa | 0 mm | 0.89 m/s, 145° | - | - |
| 1778070508 | 18.89° C | 71% | 1011.5 hPa | 0 mm | 0.89 m/s, 135° | - | - |
| 1778070206 | 18.33° C | 72% | 1011.6 hPa | 0 mm | 1.79 m/s, 153° | - | - |
| 1778069907 | 18.33° C | 73% | 1011.5 hPa | 0 mm | 1.34 m/s, 204° | - | - |
| 1778069609 | 18.33° C | 74% | 1011.6 hPa | 0 mm | 1.34 m/s, 125° | - | - |
| 1778069307 | 18.33° C | 74% | 1011.6 hPa | 0 mm | 1.79 m/s, 184° | - | - |
| 1778069009 | 18.33° C | 74% | 1011.5 hPa | 0 mm | 1.34 m/s, 236° | - | - |
| 1778068710 | 17.78° C | 74% | 1011.5 hPa | 0 mm | 1.34 m/s, 155° | - | - |
| 1778068408 | 17.78° C | 76% | 1011.6 hPa | 0 mm | 1.79 m/s, 188° | - | - |
| 1778068110 | 17.78° C | 76% | 1011.7 hPa | 0 mm | 0.89 m/s, 193° | - | - |
* Rain latest hour (hover to see other rain measurements)
** Current wind speed in m/s (hover to see current wind gust speed)